STARLINK-1583, 46064

Orbit data source: Space-Track

STARLINK-1583, 46064 is a payload satellite owned by SpaceX/Seattle (US) in LEO that was launched on Fri, 07 Aug 2020 UTC via an FALCON 9 launch vehicle from the Air Force Eastern Test Range (AFETR). Payload-class satellites include a variety of spacecraft equipped with specific instruments for various scientific and technological missions. These include communications satellites like Starlink; space stations such as the ISS; scientific satellites like the Hubble; Earth observation satellites from companies like Planet Labs, Umbra, and HawkEye 360; GPS; miniature CubeSats for education and research; and military/defense satellites.

Loading next visibility...
Identifier
46064, 2020-055AP
Orbit
LEO
Country
Flag of USUS
Related business
Manufacturer
SpaceX/Seattle
Mission
Operational Commercial Communications
Bus & Motor
STARLINK, Unknown motor
Mass
260 kg wet, ~248 kg dry
Launch date (UTC)
2020-08-07 (5 years ago)
Launch vehicle
FALCON 9
Launch site
Air Force Eastern Test Range (AFETR)
Object type
Payload
Rocket body
Debris
Shape & HBR
Box + 1 Pan, 4.4 m
Radar Cross Section
13.562 m², Large (>1 m²)

Expand to show TLE details & history
Last TLE update: 10 hours ago

TLE from 10 hours ago
0 STARLINK-1583
1 46064U 20055AP  25260.14421143 -.00001299  00000-0 -68355-4 0  9991
2 46064  53.0549 175.6968 0001404  93.7894 266.3255 15.06385837282871
Epoch: 2025-09-17T03:27Z
TLE epoch observation values (Epoch: 2025-09-17T03:27:39.867Z)
Latitude
-0.00007°
Longitude
127.45626°
Altitude
548.197 km
Speed
7.589 km/s
True Right ascension
11h 42m 47s
True Declination
0° 00' 00"
Sunlit
Object was in daylight at epoch
Visualization orbit readout
Latitude
Unknown
Longitude
Unknown
Altitude
Unknown
Speed
Unknown
Apparent Right ascension
Unknown
Apparent Declination
Unknown
Sunlit
N/A
Visualization observer readout
Local Sidereal Time
05:50:17
Azimuth
Unknown
Elevation
Unknown
Doppler factor
Unknown
Orbital elements
Apogee altitude
548.498 km
Perigee altitude
546.553 km
Semi-major axis
6,925.663 km
Eccentricity
0.00014
Inclination
53.0549°
RAAN
175.6968°
Arg. of periapsis
93.7894°
True anomaly
266.30944°
Mean anomaly
266.3255°
Eccentric anomaly
266.31747°
Mean motion
3.76575 °/min
Orbital period
95.6 mins
BSTAR
-0.000068355
Loading maneuver chart data...
Computing Atmospheric mass density...
Loading historical data...
Loading historical data...
Loading historical data...
Loading historical data...
Loading historical data...
Loading historical data...
Loading historical data...

Documentation

Showing up to 5 results
|